"Pseudo-MPEC" for A10eeCT

Created 2019 Jun 15 19:07:14 UT using Find_Orb

Click here for an explanation of pseudo-MPECs

 
 Astrometry: 
     A10eeCT  C2019 06 11.55476222 38 31.14 -34 28 00.8    ~6BFb 18.00oVNEOCPT05
     A10eeCT  C2019 06 11.55758522 38 36.57 -34 28 20.9    ~6BFb 17.74oVNEOCPT05
     A10eeCT  C2019 06 11.56439922 38 49.74 -34 29 08.9    ~6BFb 17.18oVNEOCPT05
     A10eeCT  C2019 06 11.57587822 39 11.58 -34 30 27.0    ~6BFb 19.46oVNEOCPT05

Station data:
(T05) ATLAS-HKO, Haleakala  (N20.707573 W156.257010)  US/Hawaii.  Observers
   L. Denneau, A. Heinze, H. Weiland, J. Tonry, H. Flewelling, A.
   Fitzsimmons, D. Young, B. Stalder. Measurers L. Denneau, A. Heinze, J.
   Tonry. 0.5-m f/2.0 Schmidt + CCD.

Orbital elements:  A10eeCT
   Perihelion 2019 Jul 14.811696 +/- 29.9 TT = 19:28:50 (JD 2458679.311696)
Epoch 2019 Jun 12.0 TT = JDT 2458646.5   Earth MOID: 0.0069   AutoNEOCP
M 332.58841161 +/- 50               (J2000 ecliptic)
n   0.83542124 +/- 0.549            Peri.  218.03789 +/- 60
a   1.11651793 +/- 0.489            Node    76.49294 +/- 70
e   0.1005985 +/- 0.19              Incl.    3.96365 +/- 8
P   1.18/430.91d           H 25.1   G  0.15   U 12.3  SR
q 1.00419781 +/- 0.289    Q 1.22883805 +/- 1.65
From 4 observations 2019 June 11 (30.4 min); mean residual 0".35
Residuals in arcseconds: 
190611 T05  .16-  .20+    190611 T05  .73+  .39-    
190611 T05  .28-  .01+    190611 T05  .30-  .18+    

Ephemerides (geocentric):
Date (UTC) HH   RA              Dec         delta   r     elong  mag " sig PA
---- -- -- --  -------------   -----------  ------ ------ -----  --- ---- ---
2019 06 15 19  00 39 46.247   -35 45 22.08  .01751 1.0163  91.2 19.4  36d 159
2019 06 15 20  00 40 37.925   -35 44 18.37  .01757 1.0163  91.1 19.5  37d 159
2019 06 15 21  00 41 29.256   -35 43 13.67  .01762 1.0162  91.0 19.5  37d 159
2019 06 15 22  00 42 20.241   -35 42 08.02  .01768 1.0162  90.9 19.5  37d 159
2019 06 15 23  00 43 10.883   -35 41 01.43  .01773 1.0162  90.7 19.5  37d 159
2019 06 16 00  00 44 01.184   -35 39 53.94  .01779 1.0161  90.6 19.5  37d 159
2019 06 16 01  00 44 51.146   -35 38 45.56  .01785 1.0161  90.5 19.5  37d 159
2019 06 16 02  00 45 40.772   -35 37 36.32  .01790 1.0161  90.3 19.5  37d 159
2019 06 16 03  00 46 30.063   -35 36 26.24  .01796 1.0160  90.2 19.5  37d 159
2019 06 16 04  00 47 19.022   -35 35 15.34  .01802 1.0160  90.1 19.6  37d 159
2019 06 16 05  00 48 07.651   -35 34 03.65  .01807 1.0160  90.0 19.6  38d 159
2019 06 16 06  00 48 55.953   -35 32 51.18  .01813 1.0159  89.9 19.6  38d 159
2019 06 16 07  00 49 43.929   -35 31 37.95  .01819 1.0159  89.7 19.6  38d 159
2019 06 16 08  00 50 31.583   -35 30 23.99  .01824 1.0159  89.6 19.6  38d 159
2019 06 16 09  00 51 18.915   -35 29 09.32  .01830 1.0158  89.5 19.6  38d 158
2019 06 16 10  00 52 05.929   -35 27 53.96  .01836 1.0158  89.4 19.6  38d 158
2019 06 16 11  00 52 52.626   -35 26 37.92  .01842 1.0158  89.3 19.6  38d 158
2019 06 16 12  00 53 39.010   -35 25 21.22  .01847 1.0157  89.2 19.6  38d 158
2019 06 16 13  00 54 25.081   -35 24 03.89  .01853 1.0157  89.0 19.7  38d 158
2019 06 16 14  00 55 10.843   -35 22 45.94  .01859 1.0157  88.9 19.7  38d 158
2019 06 16 15  00 55 56.298   -35 21 27.39  .01865 1.0156  88.8 19.7  39d 158
2019 06 16 16  00 56 41.448   -35 20 08.25  .01871 1.0156  88.7 19.7  39d 158
2019 06 16 17  00 57 26.294   -35 18 48.55  .01877 1.0156  88.6 19.7  39d 158
2019 06 16 18  00 58 10.840   -35 17 28.31  .01882 1.0155  88.5 19.7  39d 158
2019 06 16 19  00 58 55.087   -35 16 07.53  .01888 1.0155  88.4 19.7  39d 158
2019 06 16 20  00 59 39.039   -35 14 46.23  .01894 1.0155  88.3 19.7  39d 158
2019 06 16 21  01 00 22.696   -35 13 24.44  .01900 1.0154  88.1 19.7  39d 158
2019 06 16 22  01 01 06.061   -35 12 02.16  .01906 1.0154  88.0 19.8  39d 158
2019 06 16 23  01 01 49.136   -35 10 39.42  .01912 1.0154  87.9 19.8  39d 158
2019 06 17 00  01 02 31.924   -35 09 16.22  .01918 1.0153  87.8 19.8  39d 158
2019 06 17 01  01 03 14.427   -35 07 52.58  .01924 1.0153  87.7 19.8  39d 158
2019 06 17 02  01 03 56.647   -35 06 28.52  .01930 1.0153  87.6 19.8  39d 158
2019 06 17 03  01 04 38.585   -35 05 04.05  .01936 1.0152  87.5 19.8  40d 158
2019 06 17 04  01 05 20.245   -35 03 39.19  .01942 1.0152  87.4 19.8  40d 158
2019 06 17 05  01 06 01.627   -35 02 13.94  .01948 1.0152  87.3 19.8  40d 158
2019 06 17 06  01 06 42.736   -35 00 48.32  .01954 1.0151  87.2 19.8  40d 158
2019 06 17 07  01 07 23.572   -34 59 22.36  .01960 1.0151  87.1 19.9  40d 158
2019 06 17 08  01 08 04.137   -34 57 56.04  .01966 1.0151  87.0 19.9  40d 158
2019 06 17 09  01 08 44.434   -34 56 29.40  .01972 1.0150  86.9 19.9  40d 158
2019 06 17 10  01 09 24.465   -34 55 02.45  .01978 1.0150  86.8 19.9  40d 158
2019 06 17 11  01 10 04.232   -34 53 35.18  .01984 1.0150  86.7 19.9  40d 157
2019 06 17 12  01 10 43.736   -34 52 07.63  .01990 1.0149  86.6 19.9  40d 157
2019 06 17 13  01 11 22.981   -34 50 39.79  .01996 1.0149  86.5 19.9  40d 157
2019 06 17 14  01 12 01.968   -34 49 11.69  .02002 1.0149  86.4 19.9  40d 157
2019 06 17 15  01 12 40.699   -34 47 43.32  .02008 1.0148  86.3 19.9  40d 157
2019 06 17 16  01 13 19.176   -34 46 14.71  .02014 1.0148  86.2 20.0  40d 157
2019 06 17 17  01 13 57.401   -34 44 45.86  .02020 1.0148  86.1 20.0  40d 157
2019 06 17 18  01 14 35.376   -34 43 16.79  .02026 1.0147  86.1 20.0  40d 157